Showing default

DMC 3-FM2, 40716

Orbit data source: Space-Track

DMC 3-FM2, 40716 is a payload satellite owned by DMCii (UK) in SSO that was launched on Fri, 10 Jul 2015 UTC via a PSLV-XL launch vehicle from the Sirharikota (SRI). Payload-class satellites include a variety of spacecraft equipped with specific instruments for various scientific and technological missions. These include communications satellites like Starlink; space stations such as the ISS; scientific satellites like the Hubble; Earth observation satellites from companies like Planet Labs, Umbra, and HawkEye 360; GPS; miniature CubeSats for education and research; and military/defense satellites.

Loading next visibility...
Identifier
40716, 2015-032B
Orbit
SSO
Country
Flag of UKUK
Related business
Manufacturer
SSTL (Astrium)
Mission
Operational Commercial Imaging
Bus & Motor
SSTL-300S1, Unknown motor
Mass
447 kg wet, 435 kg dry
Launch date (UTC)
2015-07-10 (11 years ago)
Launch vehicle
PSLV-XL
Launch site
Sirharikota (SRI)
Object type
Payload
Rocket body
Debris
Shape & HBR
Hept Cyl + Cyl, 1.3 m
Radar Cross Section
2.356 m², Large (>1 m²)

Expand to show TLE details & history
Last TLE update: 9 hours ago

TLE from 9 hours ago
0 DMC 3-FM2
1 40716U 15032B   26145.59833286  .00000872  00000-0  10634-3 0  9995
2 40716  97.6548  13.2140 0007222 123.9579 236.2324 14.85714687586551
Epoch: 2026-05-25T14:21Z
TLE epoch observation values (Epoch: 2026-05-25T14:21:35.959Z)
Latitude
-0.00001°
Longitude
-85.36965°
Altitude
617.189 km
Speed
7.549 km/s
True Right ascension
00h 52m 51s
True Declination
0° 00' 00"
Sunlit
Object was in daylight at epoch
Visualization orbit readout
Latitude
Unknown
Longitude
Unknown
Altitude
Unknown
Speed
Unknown
Apparent Right ascension
Unknown
Apparent Declination
Unknown
Sunlit
N/A
Visualization observer readout
Local Sidereal Time
08:18:01
Azimuth
Unknown
Elevation
Unknown
Doppler factor
Unknown
Orbital elements
Apogee altitude
613.412 km
Perigee altitude
603.32 km
Semi-major axis
6,986.503 km
Eccentricity
0.00072
Inclination
97.6548°
RAAN
13.214°
Arg. of periapsis
123.9579°
True anomaly
236.16364°
Mean anomaly
236.2324°
Eccentric anomaly
236.19802°
Mean motion
3.71666 °/min
Orbital period
96.86 mins
BSTAR
0.00010634
Loading maneuver chart data...
Computing Atmospheric mass density...
Loading historical data...
Loading historical data...
Loading historical data...
Loading historical data...
Loading historical data...
Loading historical data...
Loading historical data...
Other satellites on launch #32 in the year 2015 (2015-07-10 UTC)

Documentation

Showing up to 5 results
|